TimeEDT,TemperatureF,Dew PointF,Humidity,Sea Level PressureIn,VisibilityMPH,Wind Direction,Wind SpeedMPH,Gust SpeedMPH,PrecipitationIn,Events,Conditions,WindDirDegrees,DateUTC
12:52 AM,61.0,59.0,93,30.07,6.0,Calm,Calm,-,N/A,,Overcast,0,2012-10-03 04:52:00
1:52 AM,60.1,59.0,96,30.06,3.0,Calm,Calm,-,N/A,,Overcast,0,2012-10-03 05:52:00
2:00 AM,60.8,59.0,94,30.06,4.0,Calm,Calm,-,N/A,,Overcast,0,2012-10-03 06:00:00
2:21 AM,60.8,59.0,94,30.06,2.5,Calm,Calm,-,N/A,,Overcast,0,2012-10-03 06:21:00
2:52 AM,60.1,59.0,96,30.06,2.0,Calm,Calm,-,N/A,,Overcast,0,2012-10-03 06:52:00
3:01 AM,60.8,59.0,94,30.05,1.8,Calm,Calm,-,N/A,,Overcast,0,2012-10-03 07:01:00
3:23 AM,60.8,59.0,94,30.06,1.0,Calm,Calm,-,N/A,,Overcast,0,2012-10-03 07:23:00
3:41 AM,60.8,59.0,94,30.06,0.8,Calm,Calm,-,N/A,,Mist,0,2012-10-03 07:41:00
3:52 AM,60.1,59.0,96,30.06,0.5,Calm,Calm,-,N/A,Fog,Fog,0,2012-10-03 07:52:00
4:52 AM,60.1,59.0,96,30.07,0.5,NW,3.5,-,N/A,Fog,Fog,320,2012-10-03 08:52:00
5:17 AM,60.8,59.0,94,30.07,1.0,Calm,Calm,-,N/A,,Mist,0,2012-10-03 09:17:00
5:52 AM,60.1,59.0,96,30.08,1.2,Calm,Calm,-,N/A,,Overcast,0,2012-10-03 09:52:00
6:34 AM,60.8,59.0,94,30.09,2.0,Calm,Calm,-,0.01,,Overcast,0,2012-10-03 10:34:00
6:41 AM,60.8,59.0,94,30.09,1.5,Calm,Calm,-,0.01,Rain,Light Rain,0,2012-10-03 10:41:00
6:52 AM,60.1,59.0,96,30.09,1.8,Calm,Calm,-,0.02,Rain,Light Rain,0,2012-10-03 10:52:00
7:10 AM,60.8,59.0,94,30.10,1.0,Calm,Calm,-,0.00,,Overcast,0,2012-10-03 11:10:00
7:18 AM,60.8,59.0,94,30.10,1.2,Calm,Calm,-,0.00,,Overcast,0,2012-10-03 11:18:00
7:41 AM,60.8,59.0,94,30.11,3.0,Calm,Calm,-,0.00,,Overcast,0,2012-10-03 11:41:00
7:52 AM,60.1,59.0,96,30.11,3.0,Calm,Calm,-,0.00,,Overcast,0,2012-10-03 11:52:00
8:52 AM,61.0,60.1,97,30.12,4.0,Calm,Calm,-,N/A,,Overcast,0,2012-10-03 12:52:00
9:14 AM,60.8,60.8,100,30.12,2.5,Calm,Calm,-,N/A,,Overcast,0,2012-10-03 13:14:00
9:38 AM,60.8,60.8,100,30.12,3.0,Calm,Calm,-,N/A,,Overcast,0,2012-10-03 13:38:00
9:52 AM,62.1,60.1,93,30.13,3.0,Calm,Calm,-,N/A,,Overcast,0,2012-10-03 13:52:00
10:52 AM,62.1,60.1,93,30.12,6.0,Calm,Calm,-,N/A,,Overcast,0,2012-10-03 14:52:00
11:49 AM,62.6,60.8,94,30.12,2.0,Calm,Calm,-,0.01,Rain,Light Rain,0,2012-10-03 15:49:00
11:52 AM,63.0,61.0,93,30.13,1.8,Calm,Calm,-,0.01,Rain,Light Rain,0,2012-10-03 15:52:00
12:06 PM,62.6,60.8,94,30.12,2.0,Calm,Calm,-,0.01,Rain,Light Rain,0,2012-10-03 16:06:00
12:23 PM,62.6,60.8,94,30.12,5.0,Calm,Calm,-,0.01,Rain,Light Rain,0,2012-10-03 16:23:00
12:52 PM,64.0,61.0,90,30.12,8.0,Calm,Calm,-,0.01,,Overcast,0,2012-10-03 16:52:00
1:52 PM,64.0,62.1,93,30.10,6.0,East,3.5,-,0.00,,Overcast,80,2012-10-03 17:52:00
2:04 PM,64.4,62.6,94,30.10,6.0,NE,3.5,-,N/A,,Overcast,40,2012-10-03 18:04:00
2:12 PM,64.4,60.8,88,30.11,9.0,NE,3.5,-,N/A,,Overcast,40,2012-10-03 18:12:00
2:52 PM,64.0,62.1,93,30.11,10.0,Calm,Calm,-,N/A,,Overcast,0,2012-10-03 18:52:00
3:31 PM,64.4,62.6,94,30.10,9.0,NE,3.5,-,N/A,,Overcast,50,2012-10-03 19:31:00
3:52 PM,64.0,62.1,93,30.11,9.0,Calm,Calm,-,N/A,,Overcast,0,2012-10-03 19:52:00
4:52 PM,64.0,62.1,93,30.12,3.0,Calm,Calm,-,N/A,,Overcast,0,2012-10-03 20:52:00
4:59 PM,64.4,62.6,94,30.12,2.5,Calm,Calm,-,N/A,,Overcast,0,2012-10-03 20:59:00
5:48 PM,64.4,62.6,94,30.13,4.0,Calm,Calm,-,0.01,,Overcast,0,2012-10-03 21:48:00
5:52 PM,64.0,62.1,93,30.13,4.0,Calm,Calm,-,0.01,,Overcast,0,2012-10-03 21:52:00
6:12 PM,62.6,62.6,100,30.13,2.0,NE,4.6,-,N/A,,Overcast,40,2012-10-03 22:12:00
6:19 PM,62.6,62.6,100,30.13,1.8,Calm,Calm,-,N/A,,Overcast,0,2012-10-03 22:19:00
6:25 PM,62.6,62.6,100,30.13,3.0,Calm,Calm,-,N/A,,Overcast,0,2012-10-03 22:25:00
6:35 PM,62.6,62.6,100,30.13,2.5,Calm,Calm,-,N/A,,Overcast,0,2012-10-03 22:35:00
6:42 PM,62.6,62.6,100,30.14,2.5,Calm,Calm,-,N/A,,Overcast,0,2012-10-03 22:42:00
6:52 PM,63.0,62.1,97,30.14,2.5,Calm,Calm,-,N/A,,Overcast,0,2012-10-03 22:52:00
7:52 PM,63.0,62.1,97,30.14,1.8,ENE,3.5,-,N/A,,Overcast,70,2012-10-03 23:52:00
8:06 PM,62.6,62.6,100,30.15,2.0,East,3.5,-,N/A,,Overcast,100,2012-10-04 00:06:00
8:25 PM,62.6,60.8,94,30.15,3.0,Calm,Calm,-,0.00,Rain,Light Rain,0,2012-10-04 00:25:00
8:52 PM,62.1,61.0,96,30.16,3.0,Calm,Calm,-,0.00,,Overcast,0,2012-10-04 00:52:00
9:26 PM,62.6,60.8,94,30.17,2.0,Calm,Calm,-,N/A,,Overcast,0,2012-10-04 01:26:00
9:36 PM,62.6,60.8,94,30.17,1.5,Calm,Calm,-,N/A,,Overcast,0,2012-10-04 01:36:00
9:52 PM,62.1,61.0,96,30.17,3.0,Calm,Calm,-,N/A,,Overcast,0,2012-10-04 01:52:00
10:02 PM,60.8,60.8,100,30.17,2.0,ESE,3.5,-,N/A,,Overcast,120,2012-10-04 02:02:00
10:09 PM,60.8,60.8,100,30.17,1.2,Calm,Calm,-,N/A,,Overcast,0,2012-10-04 02:09:00
10:32 PM,60.8,60.8,100,30.17,0.8,Calm,Calm,-,N/A,,Mist,0,2012-10-04 02:32:00
10:44 PM,60.8,60.8,100,30.17,1.0,Calm,Calm,-,0.01,,Mist,0,2012-10-04 02:44:00
11:05 PM,60.8,60.8,100,30.17,2.0,Calm,Calm,-,0.00,Rain,Light Rain,0,2012-10-04 03:05:00
11:22 PM,60.8,60.8,100,30.18,4.0,NNE,3.5,-,0.00,,Overcast,30,2012-10-04 03:22:00
11:40 PM,60.8,60.8,100,30.17,7.0,Calm,Calm,-,0.00,,Overcast,0,2012-10-04 03:40:00
11:52 PM,61.0,60.1,97,30.17,9.0,East,3.5,-,0.00,,Overcast,90,2012-10-04 03:52:00